Date,TemperatureHighF,TemperatureAvgF,TemperatureLowF,DewpointHighF,DewpointAvgF,DewpointLowF,HumidityHigh,HumidityAvg,HumidityLow,PressureMaxIn,PressureMinIn,WindSpeedMaxMPH,WindSpeedAvgMPH,GustSpeedMaxMPH,PrecipitationSumIn
2013-1-1,13.1,3.5,-6.8,5.1,-1.8,-11.4,85,79,67,29.74,29.61,10,4,10,0.00
2013-1-2,23.9,17.0,8.1,15.9,11.5,2.2,86,79,69,29.64,29.54,14,4,14,0.00
2013-1-3,25.0,17.8,11.2,19.8,13.9,7.5,87,84,80,29.70,29.54,12,5,12,0.00
2013-1-4,27.4,16.5,7.4,18.9,11.3,3.6,88,80,69,29.68,29.56,16,5,16,0.00
2013-1-5,33.5,21.8,6.3,31.3,18.6,2.2,93,87,79,29.70,29.36,15,5,15,0.00
2013-1-6,33.5,25.0,13.1,30.5,20.3,10.4,90,82,71,29.77,29.36,15,6,15,0.00
2013-1-7,33.1,23.6,9.7,25.2,18.4,6.3,89,81,67,29.76,29.50,25,9,25,0.00
2013-1-8,36.2,28.8,17.3,31.3,24.5,14.0,90,84,80,29.61,29.40,18,6,18,0.00
2013-1-9,39.1,31.8,18.2,31.3,24.6,12.2,86,75,60,29.95,29.40,19,7,19,0.00
2013-1-10,39.8,29.1,17.1,32.9,24.5,12.3,93,83,76,29.99,29.38,17,6,17,0.01
2013-1-11,41.8,37.0,33.8,41.0,35.8,32.0,97,95,93,29.40,29.11,12,4,12,0.03
2013-1-12,44.3,33.7,22.3,41.2,28.1,16.0,96,80,68,29.52,29.10,21,9,21,0.00
2013-1-13,22.3,16.6,11.9,16.2,9.7,4.7,78,74,66,29.69,29.41,17,7,20,0.00
2013-1-14,23.2,14.0,7.0,11.9,6.7,2.2,83,73,59,29.92,29.69,13,4,13,0.00
2013-1-15,29.0,20.3,9.7,17.6,12.8,5.2,84,73,60,29.90,29.55,13,6,13,0.00
2013-1-16,31.0,21.4,15.8,27.9,16.0,10.2,88,79,72,29.57,29.25,17,8,17,0.00
2013-1-17,23.4,16.9,9.4,16.3,6.9,3.0,75,65,49,29.88,29.58,14,4,14,0.00
2013-1-18,38.5,31.5,8.5,31.8,25.7,2.3,85,79,72,29.89,29.30,26,10,26,0.12
2013-1-19,41.8,32.5,11.9,34.0,26.2,0.9,89,78,42,29.45,29.14,28,8,35,0.00
2013-1-20,13.9,8.2,4.7,1.8,-1.1,-3.1,71,66,52,29.80,29.45,25,10,25,0.00
2013-1-21,7.6,-0.2,-5.8,-0.4,-9.9,-14.5,74,63,54,29.77,29.62,25,9,25,0.00
2013-1-22,4.9,-1.8,-7.6,-6.6,-10.5,-15.0,72,66,57,29.83,29.76,15,6,15,0.00
2013-1-23,16.4,9.0,0.5,11.8,2.7,-6.5,85,75,64,29.91,29.57,18,6,18,0.00
2013-1-24,14.4,6.4,-2.0,8.7,-1.1,-8.0,78,71,63,30.14,29.83,12,4,12,0.00
2013-1-25,22.7,17.7,11.9,16.8,11.8,6.4,86,78,66,29.83,29.43,15,7,15,0.00
2013-1-26,25.4,15.1,4.0,15.8,8.3,-0.6,83,75,63,29.89,29.68,10,4,10,0.02
2013-1-27,31.5,26.7,21.6,29.7,21.9,13.3,93,82,69,29.83,29.37,14,7,14,0.00
2013-1-28,36.0,32.7,29.9,33.1,30.5,27.6,95,92,85,29.47,29.30,14,3,14,0.14
2013-1-29,49.7,39.5,33.7,49.2,38.5,32.0,98,96,93,29.31,29.01,15,5,15,1.02
2013-1-30,34.4,26.1,14.6,33.1,24.6,11.4,97,94,86,29.10,28.85,21,9,21,0.05
2013-1-31,14.8,9.5,0.0,11.4,4.3,-5.0,86,79,69,29.61,29.10,21,10,21,0.00
2013-2-1,4.0,0.2,-5.0,0.6,-5.8,-10.2,86,76,65,29.79,29.61,19,8,19,0.00
2013-2-2,11.9,5.1,-0.9,2.6,-0.5,-6.6,85,78,64,29.62,29.50,10,2,10,0.00
2013-2-3,19.8,11.1,0.5,9.8,5.2,-3.9,88,77,64,29.53,29.43,17,4,17,0.00
2013-2-4,17.6,11.1,4.1,9.6,4.9,-4.3,87,76,60,29.51,29.43,12,3,12,0.03
2013-2-5,27.0,16.9,1.3,22.3,12.0,-4.9,89,81,74,29.61,29.26,15,5,15,0.00
2013-2-6,30.2,17.2,-2.0,26.8,12.1,-6.5,89,80,70,29.73,29.57,11,3,11,0.00
2013-2-7,34.0,29.0,20.3,31.7,26.9,18.4,94,92,86,29.61,29.45,24,8,24,0.00
2013-2-8,23.9,15.6,1.1,19.1,11.5,-3.5,93,84,73,29.90,29.60,22,5,22,0.00
2013-2-9,27.9,19.2,-0.5,23.5,15.7,-4.8,91,86,81,29.90,29.59,19,6,19,0.00
2013-2-10,39.2,30.7,16.6,38.4,28.8,13.4,97,93,87,29.59,28.90,20,9,20,0.01
2013-2-11,36.7,30.7,25.9,34.6,26.5,20.4,92,84,77,29.48,28.89,27,12,27,0.01
2013-2-12,28.4,23.5,20.2,20.7,17.9,15.5,87,79,69,29.57,29.36,15,6,16,0.00
2013-2-13,35.8,28.1,19.1,29.0,24.0,15.8,92,85,74,29.36,29.19,10,4,10,0.01
2013-2-14,34.4,31.1,24.3,32.3,28.3,21.2,93,89,82,29.51,29.08,17,6,17,0.09
2013-2-15,28.1,18.1,10.4,21.3,9.3,3.2,89,69,50,29.70,29.51,12,5,12,0.02
2013-2-16,19.1,10.4,4.1,5.1,0.9,-5.1,78,66,51,29.69,29.63,13,4,13,0.00
2013-2-17,25.7,12.2,-4.0,15.4,2.5,-10.5,76,65,52,29.71,29.44,14,4,14,0.00
2013-2-18,41.4,32.1,24.1,33.7,26.0,15.4,94,78,69,29.44,28.96,15,7,15,0.07
2013-2-19,27.5,13.5,6.1,25.7,8.3,-1.1,93,80,69,29.65,29.02,24,11,24,0.01
2013-2-20,27.2,13.0,2.9,14.0,4.9,-2.8,79,70,56,29.89,29.65,15,5,15,0.07
2013-2-21,24.3,17.4,7.6,22.2,13.3,2.2,94,84,73,29.94,29.61,16,6,16,0.00
2013-2-22,36.7,27.0,22.0,31.9,24.1,19.3,92,88,76,29.61,29.30,15,4,15,0.03
2013-2-23,30.4,25.5,20.3,23.1,20.6,15.7,88,82,68,29.43,29.32,12,5,12,0.02
2013-2-24,43.9,25.8,17.8,32.4,19.8,13.9,88,78,62,29.65,29.43,12,3,12,0.06
2013-2-25,44.3,27.4,14.0,32.5,21.2,10.1,88,78,62,29.68,29.57,6,1,6,0.00
2013-2-26,34.2,28.9,22.9,28.3,25.5,19.0,95,87,75,29.58,29.18,29,12,29,0.00
2013-2-27,31.9,29.5,27.0,29.5,27.7,25.4,94,93,89,29.30,29.15,26,12,26,0.04
2013-2-28,33.1,29.4,22.5,29.3,25.3,18.9,94,85,75,29.66,29.30,20,8,20,0.06
2013-3-1,29.0,21.5,11.9,20.4,16.3,6.6,89,80,70,29.77,29.64,21,7,21,0.00
2013-3-2,27.4,15.1,6.5,16.0,8.6,0.7,83,75,62,29.76,29.66,12,3,12,0.03
2013-3-3,31.7,13.0,-1.4,13.9,3.7,-6.1,81,67,44,29.67,29.60,8,1,8,0.02
2013-3-4,35.8,21.0,4.3,24.7,14.0,-2.6,86,75,63,29.64,29.57,12,4,12,0.01
2013-3-5,31.3,27.3,23.6,25.5,23.0,20.2,92,84,73,29.61,29.43,28,7,28,0.01
2013-3-6,32.4,28.2,24.8,26.2,23.4,20.4,89,82,77,29.81,29.61,13,5,13,0.06
2013-3-7,37.6,23.2,9.7,25.6,15.8,5.3,87,74,56,29.94,29.81,8,2,8,0.00
2013-3-8,40.7,26.3,12.6,29.4,19.6,7.8,84,76,63,29.96,29.79,12,4,12,0.00
2013-3-9,38.7,33.4,26.1,33.3,29.0,21.3,94,84,76,29.79,29.31,12,6,12,0.35
2013-3-10,38.0,35.1,32.4,36.7,33.9,31.6,97,96,94,29.35,29.17,17,6,17,1.18
2013-3-11,33.5,31.7,27.7,32.4,30.6,24.0,97,96,88,29.26,29.06,14,5,14,0.08
2013-3-12,32.9,27.7,23.0,24.6,22.3,14.8,93,80,67,29.52,29.25,20,7,20,0.02
2013-3-13,35.8,24.2,17.5,15.0,13.2,10.9,83,64,41,29.79,29.52,14,6,14,0.01
2013-3-14,34.2,28.6,20.5,25.0,20.3,10.9,91,71,57,29.79,29.55,9,4,9,0.00
2013-3-15,35.5,30.1,26.1,32.3,27.3,23.8,93,89,85,29.56,29.37,10,4,10,0.04
2013-3-16,33.7,24.5,18.5,24.8,19.0,14.4,93,80,61,29.65,29.35,18,7,18,0.09
2013-3-17,36.7,21.5,13.0,22.1,12.2,5.9,78,67,54,29.79,29.53,15,5,15,0.00
2013-3-18,34.0,27.1,16.9,29.6,22.7,11.8,92,83,76,29.53,29.07,18,6,18,0.07
2013-3-19,29.5,19.5,13.0,14.5,9.9,7.1,81,67,48,29.52,29.19,24,10,24,0.09
2013-3-20,23.0,14.2,7.0,8.1,3.1,-1.7,67,61,51,29.56,29.51,18,8,19,0.00
2013-3-21,30.8,17.7,7.4,15.4,7.4,-0.4,76,64,49,29.56,29.50,15,5,15,0.00
2013-3-22,37.4,21.5,10.1,22.5,11.5,3.3,75,66,53,29.57,29.53,8,3,8,0.00
2013-3-23,39.6,26.0,13.7,25.2,16.5,7.5,83,68,47,29.66,29.58,10,2,10,0.00
2013-3-24,31.9,28.5,25.6,28.2,23.7,19.4,92,82,77,29.60,29.32,25,11,25,0.02
2013-3-25,33.7,28.7,22.0,26.0,22.8,17.8,86,78,71,29.61,29.35,18,6,18,0.00
2013-3-26,41.2,33.4,28.1,29.1,25.4,22.1,79,72,59,29.76,29.61,12,4,12,0.00
2013-3-27,44.3,35.2,27.9,27.5,23.5,18.2,78,63,44,29.82,29.75,11,3,11,0.00
2013-3-28,45.9,34.0,24.7,26.3,21.7,17.6,75,61,41,29.86,29.80,7,3,7,0.00
2013-3-29,52.2,35.7,24.1,30.6,23.2,18.0,80,62,38,29.84,29.74,4,1,4,0.00
2013-3-30,48.8,38.5,30.2,38.8,31.0,22.0,93,75,65,29.74,29.33,15,5,15,0.03
2013-3-31,47.0,37.8,31.1,38.5,32.2,20.3,95,81,59,29.43,29.23,21,7,21,0.00
2013-4-1,37.3,29.2,24.1,20.9,16.3,13.3,75,59,43,29.68,29.43,19,6,19,0.00
2013-4-2,38.9,30.7,22.9,20.0,16.6,14.4,72,56,39,29.82,29.68,14,6,14,0.00
2013-4-3,45.4,33.2,22.7,23.2,18.6,13.7,75,56,35,29.98,29.77,10,4,10,0.00
2013-4-4,55.6,40.8,29.9,36.9,27.5,20.9,71,60,44,29.77,29.47,15,7,15,0.00
2013-4-5,47.2,37.3,29.9,28.2,24.9,22.0,73,62,43,29.78,29.57,13,4,13,0.00
2013-4-6,57.2,43.6,30.6,47.8,35.8,23.7,92,75,54,29.68,29.06,22,10,22,0.03
2013-4-7,54.0,40.9,35.5,46.8,34.4,29.9,91,78,61,29.49,29.07,23,7,23,0.00
2013-4-8,46.1,39.5,34.9,42.8,36.0,29.5,94,87,80,29.54,29.19,26,7,26,0.39
2013-4-9,37.8,36.0,33.5,37.0,34.8,31.6,97,95,92,29.58,29.43,23,7,23,0.88
2013-4-10,36.2,33.9,31.0,34.1,32.1,29.7,97,93,84,29.65,29.46,20,8,20,0.96
2013-4-11,36.5,34.6,33.1,35.5,33.3,31.4,97,95,93,29.48,29.12,24,9,24,0.27
2013-4-12,38.5,34.2,32.0,35.6,32.7,30.3,97,94,87,29.30,29.06,15,4,15,0.15
2013-4-13,37.1,33.8,30.6,30.5,28.1,25.5,92,80,68,29.51,29.28,17,6,17,0.02
2013-4-14,47.2,35.9,29.2,43.7,32.1,24.7,89,86,79,29.54,29.12,22,8,22,0.03
2013-4-15,59.6,47.0,39.6,49.9,42.0,34.4,98,84,49,29.48,29.09,23,7,23,0.74
2013-4-16,50.2,40.6,32.8,36.3,32.5,28.4,85,74,55,29.82,29.47,20,5,20,0.00
2013-4-17,40.7,38.4,35.3,39.3,35.1,31.1,96,88,79,29.87,29.43,18,5,18,0.62
2013-4-18,51.3,42.5,38.9,50.8,41.1,34.4,98,95,83,29.44,28.84,26,7,26,0.43
2013-4-19,38.9,34.3,29.2,34.7,28.1,20.4,90,78,63,29.41,28.85,26,12,26,0.02
2013-4-20,44.3,33.6,25.6,23.6,19.0,13.7,79,57,31,29.91,29.41,14,5,14,0.00
2013-4-21,49.5,38.7,30.2,31.6,27.5,22.7,79,65,46,30.01,29.77,20,8,20,0.00
2013-4-22,66.6,51.4,40.3,44.6,37.5,31.5,75,60,39,29.78,29.53,17,7,17,0.00
2013-4-23,51.5,42.3,36.4,45.9,35.1,28.5,90,76,61,29.53,29.39,15,6,15,0.04
2013-4-24,52.7,42.3,32.4,31.5,27.8,23.4,77,58,33,29.54,29.48,24,5,24,0.00
2013-4-25,50.9,43.2,36.4,35.3,30.9,26.7,86,63,41,29.79,29.47,17,6,24,0.00
2013-4-26,68.8,52.9,36.5,46.4,38.3,27.0,73,59,43,29.79,29.64,22,10,22,0.00
2013-4-27,67.0,56.0,45.5,50.7,45.4,40.9,87,69,48,29.75,29.55,15,5,15,0.00
2013-4-28,74.0,58.0,40.9,47.0,43.0,36.2,86,61,33,29.54,29.32,11,2,11,0.00
2013-4-29,70.4,59.1,51.5,55.9,51.2,45.2,86,76,53,29.37,29.25,16,6,16,0.01
2013-4-30,84.2,69.2,56.5,64.3,55.5,50.6,94,66,33,29.41,29.21,20,10,20,0.32
2013-5-1,79.6,65.0,52.2,59.0,51.1,42.6,74,61,44,29.76,29.41,16,5,16,0.00
2013-5-2,53.3,44.6,35.8,45.5,38.3,33.4,92,79,65,29.83,29.71,21,10,21,0.38
2013-5-3,46.6,40.3,34.6,45.3,38.8,32.4,96,94,91,29.76,29.53,19,8,19,0.33
2013-5-4,72.5,56.2,43.6,57.4,48.4,41.9,95,77,47,29.59,29.51,13,4,13,0.12
2013-5-5,74.0,59.2,45.0,53.7,46.6,41.4,89,65,39,29.61,29.54,10,4,10,0.00
2013-5-6,75.8,60.0,46.1,52.7,44.5,39.3,78,59,31,29.61,29.52,9,3,9,0.00
2013-5-7,79.2,64.3,49.0,46.1,42.6,38.9,72,48,25,29.60,29.51,10,3,10,0.00
2013-5-8,81.9,66.1,48.6,51.6,45.7,39.6,77,51,25,29.57,29.48,7,2,7,0.00
2013-5-9,70.7,57.8,44.6,57.0,49.8,43.3,95,76,55,29.49,29.43,15,4,15,0.99
2013-5-10,50.8,43.9,39.6,46.1,41.5,38.0,96,91,83,29.51,29.41,20,8,20,0.61
2013-5-11,52.0,45.6,39.2,47.9,36.4,25.9,96,73,42,29.53,29.30,24,6,24,0.00
2013-5-12,52.6,42.6,34.2,30.8,27.4,24.3,73,56,37,29.63,29.53,16,5,16,0.00
2013-5-13,61.2,46.8,30.8,37.2,31.5,25.6,85,58,30,29.68,29.41,13,3,13,0.00
2013-5-14,83.5,65.9,47.7,57.5,48.6,34.6,70,55,38,29.41,29.06,14,6,14,0.00
2013-5-15,76.3,68.9,59.8,59.9,46.1,39.2,66,45,30,29.37,29.06,14,4,14,0.00
2013-5-16,81.0,66.2,52.6,54.3,45.8,33.4,72,49,37,29.52,29.36,14,4,14,0.00
2013-5-17,57.8,52.6,47.5,49.3,43.5,32.6,89,74,41,29.67,29.50,11,4,11,0.51
2013-5-18,79.9,63.9,51.5,65.2,55.2,47.1,89,74,56,29.59,29.46,10,4,10,0.00
2013-5-19,83.9,70.5,58.3,66.6,60.8,53.8,86,72,48,29.47,29.18,21,5,21,0.00
2013-5-20,81.5,72.3,61.4,62.2,59.5,57.2,90,66,46,29.33,29.15,19,6,19,0.15
2013-5-21,76.7,69.1,60.3,63.5,58.6,53.1,87,70,51,29.22,29.12,15,6,15,0.00
2013-5-22,62.6,57.8,51.7,59.0,55.0,50.2,96,90,78,29.30,29.16,12,3,12,1.16
2013-5-23,58.9,50.8,43.0,50.5,44.2,36.6,96,80,54,29.81,29.30,15,7,15,0.17
2013-5-24,63.7,49.7,36.7,44.1,38.1,33.0,87,66,41,29.94,29.80,6,2,6,0.00
2013-5-25,64.3,54.5,45.7,43.2,39.5,36.1,74,58,42,29.89,29.79,9,3,9,0.00
2013-5-26,66.6,54.7,40.7,46.1,40.5,34.0,80,60,41,29.81,29.66,11,3,11,0.00
2013-5-27,54.5,52.3,49.7,50.4,45.7,38.8,93,79,59,29.68,29.40,15,7,15,0.04
2013-5-28,68.8,57.3,49.9,64.4,55.0,47.7,95,92,84,29.41,29.22,6,2,6,0.35
2013-5-29,80.3,68.7,59.0,67.7,62.3,56.7,96,81,61,29.41,29.28,13,4,13,0.19
2013-5-30,83.0,71.9,62.6,71.5,65.1,60.3,93,80,58,29.41,29.22,23,8,23,0.17
2013-5-31,74.0,66.6,62.5,66.3,61.7,60.1,93,84,69,29.29,29.19,17,7,17,0.00
2013-6-1,76.7,68.1,60.1,65.9,61.7,55.5,95,81,61,29.19,29.09,17,5,17,0.21
2013-6-2,61.9,54.6,47.2,57.2,45.4,40.2,90,72,53,29.51,29.17,15,3,15,0.00
2013-6-3,69.5,58.6,44.6,49.0,44.8,40.3,88,62,41,29.58,29.49,8,2,8,0.00
2013-6-4,68.0,58.1,50.8,55.5,48.6,44.0,87,71,54,29.67,29.56,10,2,10,0.08
2013-6-5,61.9,54.0,49.5,54.5,48.9,46.6,91,83,68,29.65,29.46,8,3,8,0.19
2013-6-6,59.4,53.6,50.4,55.8,50.2,46.3,95,89,79,29.47,29.42,8,2,8,0.43
2013-6-7,71.3,59.6,50.8,56.3,50.5,47.0,89,73,52,29.49,29.41,5,2,5,0.00
2013-6-8,71.1,61.1,51.1,55.3,51.3,47.0,89,71,49,29.51,29.41,7,2,7,0.00
2013-6-9,78.3,65.8,55.4,62.6,55.5,47.6,81,70,53,29.51,29.32,13,5,13,0.00
2013-6-10,77.4,68.6,59.6,66.3,61.0,55.4,88,77,64,29.35,29.27,5,1,5,0.00
2013-6-11,79.9,70.7,60.1,65.7,62.2,57.7,93,76,58,29.45,29.34,10,2,10,0.00
2013-6-12,78.1,66.8,57.4,68.3,62.9,55.7,95,88,71,29.45,29.19,12,3,12,0.89
2013-6-13,73.6,66.5,56.5,60.6,57.0,52.6,94,72,56,29.60,29.28,9,3,9,0.01
2013-6-14,76.1,65.4,53.1,59.0,54.7,49.6,89,70,52,29.67,29.52,6,2,6,0.00
2013-6-15,77.4,66.3,55.4,69.4,61.1,47.3,96,84,64,29.59,29.33,21,4,21,1.00
2013-6-16,81.0,71.2,60.7,66.5,59.3,53.9,96,70,41,29.42,29.36,16,3,16,0.00
2013-6-17,82.4,69.6,56.9,64.1,56.9,51.2,84,66,39,29.52,29.38,16,3,16,0.00
2013-6-18,71.3,61.2,52.2,57.2,50.0,45.5,87,69,42,29.62,29.50,8,3,8,0.00
2013-6-19,76.0,64.0,48.2,52.6,49.1,42.9,85,61,39,29.67,29.58,8,2,8,0.00
2013-6-20,84.2,68.9,56.7,60.6,52.9,46.2,71,58,40,29.66,29.57,11,3,11,0.01
2013-6-21,76.0,69.6,64.3,68.4,62.7,55.0,94,79,62,29.62,29.38,27,4,27,1.12
2013-6-22,78.8,71.0,66.6,71.5,66.9,64.3,95,87,75,29.61,29.41,11,3,11,0.21
2013-6-23,83.9,73.7,64.1,74.4,67.6,61.9,95,82,66,29.53,29.37,15,6,15,0.04
2013-6-24,78.3,72.1,67.3,69.7,66.7,64.9,94,83,69,29.52,29.34,11,4,11,0.00
2013-6-25,80.3,71.2,65.7,72.8,67.7,64.2,96,89,78,29.45,29.31,10,2,10,0.40
2013-6-26,81.7,72.7,67.3,71.5,67.7,65.1,94,85,66,29.33,29.24,8,2,8,0.00
2013-6-27,82.3,74.5,67.5,72.9,68.0,62.8,96,81,63,29.30,29.19,13,3,13,0.06
2013-6-28,75.4,68.7,62.6,65.8,62.5,59.4,93,81,65,29.24,29.13,13,4,13,0.40
2013-6-29,71.6,64.9,61.7,64.1,60.9,55.9,96,87,69,29.37,29.15,11,3,11,0.44
2013-6-30,74.7,65.4,55.8,60.8,53.8,48.8,83,67,46,29.57,29.36,10,3,10,0.00
2013-7-1,77.4,66.8,55.8,60.0,53.5,49.3,79,64,40,29.65,29.56,8,3,8,0.00
2013-7-2,74.0,64.2,55.1,55.3,50.1,45.7,85,62,41,29.65,29.60,8,2,8,0.00
2013-7-3,70.6,64.2,59.0,62.3,57.7,48.2,89,80,65,29.61,29.53,6,1,6,0.03
2013-7-4,80.1,70.7,63.2,61.8,60.4,58.2,92,72,49,29.59,29.53,6,3,6,0.00
2013-7-5,83.2,75.5,62.6,67.3,62.6,58.8,87,65,50,29.58,29.50,12,5,12,0.00
2013-7-6,83.9,74.3,63.0,67.6,63.0,58.2,86,69,50,29.56,29.46,10,4,10,0.00
2013-7-7,85.1,75.8,65.9,72.6,67.5,61.4,91,76,61,29.50,29.42,8,4,8,0.00
2013-7-8,83.3,75.4,70.2,75.3,70.8,66.6,96,86,74,29.51,29.40,11,3,11,0.63
2013-7-9,81.5,73.8,65.2,75.3,69.8,62.5,93,87,77,29.53,29.31,13,3,13,0.26
2013-7-10,76.0,71.4,62.6,71.6,61.9,55.6,93,73,53,29.54,29.34,13,3,13,0.01
2013-7-11,78.8,69.7,56.2,61.9,57.7,52.0,89,67,48,29.64,29.53,7,1,7,0.00
2013-7-12,82.3,70.0,56.5,61.9,56.1,51.4,85,64,37,29.68,29.59,5,2,5,0.00
2013-7-13,83.0,71.4,59.2,65.0,58.8,52.7,83,66,47,29.68,29.60,9,3,9,0.00
2013-7-14,86.6,74.7,60.5,70.2,63.9,55.1,86,70,54,29.75,29.67,7,2,7,0.21
2013-7-15,89.3,78.2,65.9,74.3,68.9,61.8,88,74,55,29.80,29.74,7,2,7,0.04
2013-7-16,89.6,80.8,72.2,76.8,72.9,67.8,90,78,62,29.80,29.73,8,2,8,0.00
2013-7-17,90.9,81.5,73.6,76.8,73.0,69.5,92,76,56,29.80,29.67,9,2,9,0.00
2013-7-18,90.2,82.3,73.8,75.3,72.5,70.4,92,74,55,29.68,29.40,9,4,9,0.00
2013-7-19,88.6,80.3,70.4,74.4,69.0,61.4,85,69,51,29.40,29.25,14,5,14,0.00
2013-7-20,81.7,72.0,63.9,65.6,60.7,54.6,83,68,53,29.50,29.35,6,3,6,0.00
2013-7-21,79.0,65.5,59.2,64.6,58.9,53.7,94,80,58,29.52,29.41,8,2,8,1.37
2013-7-22,81.5,71.2,59.4,71.8,65.6,57.4,96,84,65,29.43,29.14,13,4,13,0.00
2013-7-23,73.3,67.2,57.4,65.4,56.6,50.2,86,69,56,29.53,29.24,9,2,9,0.00
2013-7-24,72.7,62.6,52.0,54.8,51.8,47.5,87,69,50,29.61,29.53,5,1,5,0.00
2013-7-25,76.7,66.1,53.6,63.7,58.1,48.8,88,76,61,29.59,29.48,12,4,12,0.00
2013-7-26,74.3,66.5,59.4,67.0,60.3,53.9,93,81,58,29.48,29.35,12,4,12,0.00
2013-7-27,60.8,54.8,50.0,55.4,47.6,44.4,89,77,63,29.46,29.37,15,4,15,0.01
2013-7-28,65.2,57.6,51.3,54.7,50.7,48.1,91,79,66,29.51,29.34,14,4,14,0.00
2013-7-29,71.6,60.0,53.6,58.6,52.2,48.6,84,76,61,29.68,29.51,5,2,5,0.00
2013-8-1,76.0,69.7,62.1,56.3,54.9,53.5,78,60,46,29.48,29.41,12,3,12,0.00
2013-8-2,78.3,68.1,59.0,66.3,58.8,52.8,95,74,49,29.48,29.35,10,3,10,0.48
2013-8-3,75.4,65.1,52.9,59.0,53.1,48.3,87,67,45,29.65,29.48,10,2,10,0.00
2013-8-4,74.0,63.8,54.0,58.8,53.9,48.5,90,71,49,29.75,29.63,5,1,5,0.00
2013-8-5,71.8,62.7,54.4,62.6,57.0,50.4,90,82,70,29.63,29.38,9,3,9,0.00
2013-8-6,80.3,71.5,63.2,68.2,64.8,60.3,93,80,60,29.40,29.28,8,3,8,0.00
2013-8-7,75.1,68.4,62.3,68.8,62.7,57.5,96,83,69,29.50,29.26,14,2,14,0.98
2013-8-8,75.8,67.1,57.6,61.3,57.6,50.8,92,73,53,29.57,29.50,5,2,5,0.00
2013-8-9,77.4,66.7,56.3,63.4,56.5,50.0,86,71,53,29.58,29.48,12,2,12,0.00
2013-8-10,73.6,60.3,52.7,57.4,52.9,48.6,87,77,56,29.66,29.58,4,0,4,0.00
2013-8-11,65.2,60.7,55.4,63.1,57.8,50.3,94,90,82,29.65,29.54,5,1,5,0.34
2013-8-12,77.8,67.5,59.4,66.8,60.9,56.3,96,81,56,29.55,29.41,9,2,9,0.01
2013-8-13,68.0,59.7,50.8,56.9,49.3,45.1,85,69,52,29.69,29.52,7,2,7,0.00
2013-8-14,70.4,60.4,46.1,53.6,49.9,42.1,89,70,51,29.74,29.63,7,1,7,0.04
2013-8-15,76.0,64.4,52.0,60.2,54.2,47.9,90,71,46,29.66,29.59,6,1,6,0.00
2013-8-16,79.9,66.9,52.6,61.1,55.2,47.9,87,68,46,29.71,29.63,5,2,5,0.00
2013-8-17,80.3,67.1,54.7,60.5,55.2,49.3,87,67,46,29.76,29.68,6,1,6,0.00
2013-8-18,80.5,66.5,52.4,61.5,55.3,47.7,89,69,45,29.74,29.61,6,2,6,0.00
2013-8-19,79.4,67.8,56.0,65.3,58.8,51.1,89,74,53,29.62,29.53,8,2,8,0.00
2013-8-20,82.8,71.6,60.8,68.4,62.4,55.5,92,74,53,29.59,29.50,10,4,10,0.00
2013-8-21,85.9,75.4,67.3,73.1,66.9,62.6,88,76,61,29.54,29.40,15,5,15,0.00
2013-8-22,77.8,69.3,60.7,69.7,63.9,53.8,94,83,71,29.64,29.51,7,1,7,0.00
2013-8-23,82.1,67.7,53.3,64.2,57.4,49.1,86,71,49,29.71,29.64,5,2,5,0.00
2013-8-24,80.8,68.9,55.4,66.7,59.7,51.2,88,74,52,29.77,29.66,10,3,10,0.00
2013-8-25,86.4,75.8,65.7,72.8,66.1,59.2,84,73,59,29.70,29.58,12,6,12,0.00
2013-8-26,86.0,77.3,68.8,75.3,69.5,64.1,86,77,62,29.66,29.46,12,4,12,0.00
2013-8-27,90.5,80.9,71.8,75.2,71.9,68.0,89,75,57,29.48,29.31,14,4,14,0.00
2013-8-28,81.4,74.1,66.4,71.7,68.6,62.1,93,83,69,29.58,29.36,6,2,6,0.00
2013-8-29,85.7,73.9,61.9,71.2,66.2,59.0,93,78,56,29.61,29.48,9,2,9,0.00
2013-8-30,87.3,75.1,65.9,78.2,69.4,60.9,93,83,70,29.49,29.30,9,4,9,0.20
2013-8-31,78.3,68.8,60.8,67.9,62.8,58.0,93,82,66,29.41,29.30,5,1,8,0.00
2013-9-1,82.4,69.5,59.9,72.0,62.9,55.4,96,81,56,29.35,29.22,8,2,8,0.03
2013-9-2,67.7,61.7,53.3,58.1,54.4,47.6,90,77,64,29.52,29.34,5,2,5,0.00
2013-9-3,73.1,59.9,46.4,56.4,51.0,43.8,92,74,47,29.60,29.50,7,2,10,0.00
2013-9-4,80.5,61.9,51.5,63.5,54.7,46.8,93,79,53,29.61,29.53,8,2,8,0.00
2013-9-5,74.5,65.9,53.6,57.9,52.8,45.9,86,63,54,29.79,29.72,6,2,6,0.00
2013-9-6,82.6,66.7,49.5,66.6,57.2,44.7,86,73,56,29.74,29.48,11,3,11,0.00
2013-9-7,84.6,73.0,66.1,72.5,66.3,61.2,90,80,64,29.53,29.39,8,3,8,0.01
2013-9-8,70.2,65.5,60.5,63.7,60.4,56.8,89,84,79,29.60,29.45,9,3,9,0.00
2013-9-9,87.1,75.2,62.8,75.9,68.6,59.4,94,81,66,29.49,29.27,12,4,12,0.01
2013-9-10,91.4,80.4,71.5,69.8,65.7,63.5,78,63,41,29.47,29.30,13,4,13,0.00
2013-9-11,78.3,71.8,65.0,68.5,65.0,60.8,94,80,65,29.59,29.47,8,3,8,0.37
2013-9-12,71.8,62.9,53.5,60.7,53.9,43.7,92,74,50,29.66,29.48,10,2,10,0.02
2013-9-13,61.6,52.5,44.3,44.1,42.1,39.6,88,69,45,29.74,29.65,7,2,7,0.00
2013-9-14,68.2,55.3,40.7,49.8,44.1,36.2,88,68,45,29.68,29.50,9,2,9,0.00
2013-9-15,59.6,55.0,52.2,56.4,51.0,46.6,93,87,68,29.76,29.49,7,2,7,0.59
2013-9-16,62.1,51.1,41.4,48.2,43.1,37.4,88,75,56,29.91,29.76,8,2,8,0.00
2013-9-17,67.7,54.1,39.2,54.0,46.8,35.1,90,77,58,29.85,29.60,10,2,10,0.00
2013-9-18,77.6,65.5,56.7,66.0,59.7,52.2,92,82,66,29.60,29.39,14,5,14,0.16
2013-9-19,81.5,70.1,64.4,72.7,66.7,63.0,96,89,73,29.40,29.22,15,5,15,1.27
2013-9-20,70.4,64.0,55.8,64.5,59.7,52.2,97,87,71,29.33,29.22,13,4,13,0.09
2013-9-21,58.1,52.7,44.3,52.6,46.6,40.3,91,81,64,29.46,29.33,10,3,10,0.00
2013-9-22,60.1,48.9,39.4,45.6,41.4,36.5,90,76,53,29.59,29.47,5,1,5,0.12
2013-9-23,68.0,54.6,40.0,53.0,46.6,36.6,91,76,56,29.63,29.55,7,2,7,0.00
2013-9-24,71.6,55.8,44.8,57.8,48.6,41.5,92,78,57,29.57,29.48,7,2,7,0.00
2013-9-25,72.0,55.1,44.8,58.0,48.5,41.2,95,80,57,29.52,29.47,5,1,5,0.00
2013-9-26,76.7,58.1,44.3,60.7,49.4,41.3,92,75,51,29.61,29.50,8,2,8,0.00
2013-9-27,79.6,62.7,50.0,58.0,52.2,46.5,91,71,46,29.66,29.56,8,3,8,0.00
2013-9-28,79.2,64.1,53.5,64.6,55.2,47.0,94,75,52,29.56,29.32,22,6,22,0.22
2013-9-29,68.8,56.3,46.4,52.7,46.6,42.9,93,73,41,29.57,29.46,6,2,6,0.00
2013-9-30,70.7,57.6,45.0,49.1,45.2,40.1,86,65,43,29.50,29.32,13,4,13,0.00
2013-10-1,77.0,64.3,51.7,61.7,55.4,43.7,93,74,57,29.47,29.32,14,5,14,0.00
2013-10-2,75.8,60.0,45.7,50.9,44.8,40.2,84,60,32,29.62,29.47,4,2,4,0.00
2013-10-3,72.0,63.1,53.6,65.6,57.2,42.0,96,82,63,29.49,29.35,12,2,12,1.57
2013-10-11,74.0,63.1,50.9,60.3,53.8,47.4,90,73,54,29.56,29.43,10,4,10,0.00
2013-10-12,67.0,59.6,47.5,60.8,50.8,38.5,92,73,45,29.65,29.40,12,4,12,0.07
2013-10-13,58.1,48.5,40.0,43.5,38.2,33.7,85,68,49,29.90,29.65,10,2,10,0.00
2013-10-14,60.1,46.6,34.7,46.9,38.5,30.3,90,74,56,29.92,29.63,8,2,8,0.00
2013-10-15,56.5,51.1,45.0,55.4,48.0,40.1,96,89,82,29.63,29.23,11,3,11,0.33
2013-10-16,53.8,48.9,46.3,49.0,45.8,42.7,93,89,82,29.42,29.26,13,3,13,0.00
2013-10-17,52.7,46.0,41.6,42.8,40.0,37.0,90,80,59,29.42,29.29,8,2,8,0.02
2013-10-18,48.1,43.3,39.1,42.7,38.6,35.4,89,84,78,29.43,29.28,12,3,12,0.00
2013-10-19,51.1,41.4,33.8,38.7,35.3,30.6,91,80,52,29.40,29.21,13,2,13,0.00
2013-10-20,46.3,40.3,32.9,44.5,37.8,31.3,95,91,79,29.35,29.19,10,3,10,0.08
2013-10-21,45.2,37.4,31.3,42.5,30.1,21.8,90,75,60,29.41,29.22,17,6,17,0.00
2013-10-22,45.4,36.5,27.7,32.8,27.4,22.7,84,70,54,29.44,29.38,10,3,10,0.01
2013-10-23,44.1,34.3,27.2,28.7,25.8,22.0,84,72,45,29.50,29.43,12,4,12,0.00
2013-10-24,41.6,34.9,28.3,29.5,26.8,23.4,83,72,56,29.77,29.49,10,4,10,0.00
2013-10-25,48.4,39.0,27.9,31.7,27.6,23.2,86,65,48,29.82,29.34,17,6,17,0.00
2013-10-26,47.2,43.7,38.9,37.2,31.3,28.8,79,62,50,29.35,29.24,16,6,17,0.00
2013-10-27,40.3,37.8,34.9,29.5,27.5,26.7,75,66,63,29.55,29.49,6,1,6,0.00
2013-10-28,43.2,38.4,34.9,33.0,30.5,27.5,83,73,62,29.92,29.55,10,5,10,0.00
2013-10-29,50.4,40.7,32.0,41.9,35.0,25.0,88,80,71,29.90,29.63,5,2,5,0.00
2013-10-30,53.1,47.1,37.3,50.8,44.8,34.0,94,92,88,29.63,29.25,7,2,7,0.00
2013-10-31,59.4,52.9,41.8,58.5,51.6,39.9,97,96,93,29.26,28.76,16,4,16,1.28
2013-11-1,44.1,42.1,40.5,41.7,40.0,38.3,94,92,90,29.24,28.80,17,5,17,0.05
2013-11-2,42.7,40.3,37.1,39.8,37.6,34.4,94,90,82,29.64,29.24,8,2,8,0.06
2013-11-3,49.1,39.9,30.4,40.9,34.9,28.6,94,83,63,29.79,29.64,10,3,10,0.00
2013-11-4,50.8,46.6,41.8,44.1,39.9,36.7,86,78,67,29.72,29.51,20,7,20,0.00
2013-11-5,53.5,49.0,45.4,49.2,46.1,42.8,96,90,82,29.75,29.36,17,4,17,0.36
2013-11-6,52.4,39.8,29.9,51.2,36.5,25.2,96,88,79,29.63,29.21,19,7,19,0.20
2013-11-7,41.0,32.7,26.1,31.3,27.1,23.0,89,80,64,29.71,29.63,13,4,13,0.00
2013-11-8,43.2,34.7,24.8,34.7,29.5,22.1,91,82,71,29.77,29.30,17,5,17,0.00
2013-11-9,50.8,43.9,38.2,40.1,35.1,26.7,83,71,58,29.54,29.22,22,10,22,0.01
2013-11-10,47.2,40.7,37.3,32.9,29.9,28.0,74,65,49,29.80,29.54,17,6,17,0.00
2013-11-11,40.5,31.2,23.8,33.3,23.7,13.7,92,74,62,30.03,29.53,15,5,15,0.09
2013-11-12,29.5,22.7,16.9,17.1,14.1,11.5,80,70,51,30.18,30.01,12,5,12,0.00
2013-11-13,40.7,31.6,17.8,20.9,18.1,12.4,86,59,40,30.02,29.51,21,9,21,0.00
2013-11-14,45.5,36.5,28.4,31.1,26.0,19.8,78,66,53,29.51,29.36,15,7,15,0.00
2013-11-15,53.3,40.4,31.0,40.0,32.4,26.3,84,74,59,29.43,29.36,9,4,9,0.00
2013-11-16,56.3,46.0,34.4,53.7,43.5,30.0,95,91,82,29.38,28.98,25,10,25,0.05
2013-11-17,56.3,48.8,39.1,53.7,46.0,32.3,95,90,77,29.13,28.68,33,9,33,1.10
2013-11-18,38.9,31.7,24.7,32.6,24.6,19.4,81,75,70,29.74,29.12,23,10,24,0.00
2013-11-19,40.0,30.7,21.8,30.4,24.5,17.9,89,78,63,29.85,29.73,9,4,9,0.00
2013-11-20,39.8,35.2,30.8,32.2,29.2,27.3,90,79,63,29.74,29.58,14,7,14,0.00
2013-11-21,41.8,38.1,34.9,37.8,35.1,32.0,91,89,84,29.75,29.60,6,2,7,0.00
2013-11-22,36.4,29.7,23.9,33.7,23.5,14.0,93,78,62,29.95,29.74,12,5,12,0.06
2013-11-23,74.7,16.7,10.3,16.0,6.9,-17.8,75,65,11,30.18,29.87,18,7,18,0.00
2013-11-24,26.3,16.9,7.4,9.6,5.8,1.6,80,63,44,30.16,29.70,20,7,20,0.01
2013-11-25,29.2,25.0,20.5,25.5,19.1,9.1,91,79,59,29.70,29.47,21,9,21,0.00
2013-11-26,31.5,24.0,11.9,25.8,16.3,4.0,86,72,48,29.69,29.48,15,6,15,0.00
2013-11-27,26.1,18.3,9.7,14.9,10.1,4.2,82,71,54,29.73,29.67,13,4,13,0.00
2013-11-28,27.0,21.5,15.7,18.4,14.7,10.0,80,75,67,29.98,29.64,11,3,11,0.01
2013-11-29,29.9,20.8,9.5,21.0,14.5,5.0,85,77,62,30.10,29.82,10,3,10,0.00
2013-11-30,41.4,32.2,25.4,31.5,25.8,20.0,83,77,67,29.82,29.52,13,5,13,0.00
2013-12-1,38.5,30.8,25.6,30.0,25.5,21.1,99,81,70,29.64,29.49,7,2,7,0.00
2013-12-2,38.3,30.6,21.8,33.0,26.6,18.5,90,85,79,29.49,29.27,12,4,12,0.00
2013-12-3,36.0,34.1,32.2,34.7,32.5,29.7,99,94,90,29.28,29.21,14,6,14,0.17
2013-12-4,46.8,38.1,33.1,45.7,36.8,31.2,97,95,87,29.29,28.93,20,5,20,0.04
2013-12-5,34.2,21.5,12.1,31.2,14.5,5.3,89,74,63,29.76,29.10,19,9,21,0.00
2013-12-6,15.1,9.1,4.9,5.8,2.3,-1.2,80,74,63,30.02,29.74,15,6,15,0.01
2013-12-7,13.7,5.6,-0.7,3.5,-1.7,-5.8,80,72,56,30.15,30.01,13,4,13,0.00
2013-12-8,17.8,12.6,4.1,14.8,7.1,-2.2,89,79,66,30.08,29.43,11,4,11,0.00
2013-12-9,17.1,9.1,-4.1,12.9,3.4,-9.4,89,78,60,29.64,29.40,19,6,19,0.00
2013-12-10,86.2,9.8,-22.7,84.2,5.0,-23.8,99,82,57,29.72,29.39,8,0,8,0.00
2013-12-11,11.0,3.1,-4.7,7.6,-4.3,-12.1,87,71,60,29.98,29.71,0,0,0,0.00
2013-12-12,18.2,9.0,-4.7,11.3,2.5,-11.1,81,75,64,29.94,29.65,0,0,0,0.00
2013-12-13,23.4,17.3,12.2,15.3,12.0,7.2,85,79,69,29.73,29.62,0,0,0,0.00
2013-12-14,24.1,19.7,17.3,21.1,16.8,13.4,91,88,85,29.71,29.40,0,0,0,0.00
2013-12-15,18.9,8.6,-2.0,16.4,1.5,-9.7,90,73,51,29.61,29.39,0,0,0,0.00
2013-12-16,13.7,6.1,-4.5,11.0,0.3,-10.8,90,77,66,29.63,29.47,0,0,0,0.00
2013-12-17,33.7,23.6,13.3,27.4,19.1,10.7,92,83,70,29.54,29.35,0,0,0,0.01
2013-12-18,32.4,20.7,8.5,22.9,13.7,3.1,85,74,57,29.58,29.24,0,0,0,0.00
2013-12-19,28.1,23.0,15.3,23.8,19.3,11.4,92,86,80,29.51,29.27,0,0,0,0.00
2013-12-20,23.8,21.9,20.2,21.5,19.6,17.6,92,91,89,29.41,29.30,0,0,0,0.00
2013-12-21,26.3,24.0,22.0,24.3,22.2,20.0,93,93,92,29.40,29.24,0,0,0,0.00
2013-12-22,25.6,22.3,17.8,23.8,19.9,15.3,93,91,85,29.60,29.21,0,0,0,0.00
2013-12-23,23.4,14.4,4.1,21.2,11.2,0.5,92,87,81,29.88,29.60,0,0,0,0.00
2013-12-24,13.5,2.4,-11.3,8.0,-2.1,-15.1,87,81,75,30.00,29.77,0,0,0,0.00
2013-12-25,22.0,18.0,9.4,19.5,15.1,6.2,91,88,83,29.77,29.54,0,0,0,0.00
2013-12-26,21.6,18.1,11.7,17.7,14.4,8.1,89,85,80,29.72,29.56,0,0,0,0.00
2013-12-27,32.9,22.1,5.8,28.4,18.7,2.9,93,87,81,29.74,29.47,0,0,0,0.00
2013-12-28,41.9,32.7,22.5,33.9,28.3,20.4,94,84,72,29.53,29.25,0,0,0,0.14
2013-12-29,33.7,17.5,-4.7,29.0,12.4,-10.7,91,80,71,29.71,29.22,0,0,0,0.00
2013-12-30,1.6,-4.1,-13.1,-2.5,-10.5,-18.9,83,74,62,29.80,29.65,0,0,0,0.00
2013-12-31,7.6,3.6,-2.9,1.0,-2.3,-10.0,83,76,69,29.84,29.64,0,0,0,0.00
2014-1-1,8.3,3.5,-3.4,2.3,-2.9,-10.3,78,74,70,29.88,29.78,0,0,0,0.00
2014-1-2,9.9,4.8,-5.2,2.9,-1.3,-11.2,83,76,68,29.89,29.75,0,0,0,0.00